SCP
0 0 0 0 0 0 0 0 0 0 0 0 0 0 0 0 0 0 0 0 0 0 0 0 0 0 1 0 0 1 1 1 0 0 0 0 0 0 0 0 0 0 0
0 0 0 0 0 0 0 0 0 0 0 0 0 0 0 0 0 0 0 0 0 0 0 0 0 0 1 1 1 1 1 1 1 0 0 0 0 0 0 0 0 0 0
0 0 0 0 0 0 0 0 0 0 0 0 0 0 0 0 0 0 0 0 0 0 0 0 0 0 0 0 1 1 1 1 1 1 1 1 0 0 0 0 0 0 0
0 0 0 0 0 0 0 0 0 0 0 0 0 0 0 0 0 0 0 0 0 0 0 0 0 0 0 0 0 1 1 1 1 1 1 0 0 0 0 0 0 0 0
0 0 0 0 0 0 0 0 0 0 0 0 0 0 0 0 0 0 0 0 0 0 0 0 0 0 0 0 0 1 1 1 1 0 1 1 1 1 1 0 0 0 0
0 0 0 0 0 0 0 0 0 0 0 0 0 0 0 0 0 0 0 0 0 0 0 0 0 0 0 0 0 0 1 1 1 0 0 0 1 0 0 0 0 0 0
0 0 0 0 0 0 0 0 0 0 0 0 0 0 0 0 0 0 0 0 0 0 0 0 0 0 0 0 0 0 0 1 1 1 1 1 0 0 0 0 0 0 0
0 0 0 0 0 0 0 0 0 0 0 0 0 0 -0 -0 0 0 0 0 0 0 0 0 0 0 0 0 0 0 0 0 1 0 1 1 1 1 0 1 1 0 0
0 0 0 0 0 0 0 0 0 0 0 0 0 0 -0 -0 0 0 0 0 0 0 0 0 0 0 0 0 0 0 0 0 0 0 0 0 0 0 0 0 0 0 0
0 0 0 0 0 0 0 0 0 0 0 0 0 0 0 0 -0 -0 -0 0 0 0 0 0 0 0 0 0 0 0 0 0 0 0 0 0 0 0 0 0 0 0 0
0 0 0 0 0 0 0 0 0 0 0 0 0 0 0 0 0 0 -0 -0 0 0 0 0 0 0 0 0 0 0 0 0 0 0 0 0 0 0 0 0 0 0 0
0 0 0 0 0 0 0 0 0 0 0 0 0 0 0 0 0 0 0 0 -0 0 -0 0 0 0 0 0 0 0 0 0 0 0 0 0 0 0 0 0 0 0 0
0 0 0 0 0 0 0 0 0 0 0 0 0 0 0 0 0 0 0 0 -0 -0 0 -0 0 0 0 0 0 0 0 0 0 0 0 0 0 0 0 0 0 0 0
0 0 0 0 0 0 0 0 0 0 0 0 0 0 0 0 0 0 0 0 0 0 -0 0 -0 0 0 0 0 0 0 0 0 0 0 0 0 0 0 0 0 0 0
0 0 0 0 0 0 0 0 0 0 0 0 0 0 0 0 0 0 0 0 0 0 0 0 0 -0 0 0 0 0 0 0 0 0 0 0 0 0 0 0 0 0 0
0 0 0 0 0 0 0 0 0 0 0 0 0 0 0 0 0 0 0 0 0 0 0 -0 -0 -0 0 0 0 0 0 0 0 0 0 0 0 0 0 0 0 0 0
0 0 0 0 0 0 0 0 0 0 0 0 0 0 0 0 0 0 0 0 0 0 0 0 0 0 0 0 0 0 0 0 0 0 0 0 0 0 0 0 0 0 0
0 0 0 0 0 0 0 0 0 0 0 0 0 0 0 0 0 0 0 0 0 0 0 0 0 0 -0 0 0 0 0 0 0 0 0 0 0 0 0 0 0 0 0
0 0 0 0 0 0 0 0 0 0 0 0 0 0 0 0 0 0 0 0 -0 -0 0 0 0 0 -0 0 0 0 0 0 0 0 0 0 0 0 0 0 0 0 0
0 0 0 0 0 0 0 0 0 0 0 0 0 0 0 0 0 -0 -0 -0 -0 -0 -0 -0 -0 0 0 0 0 0 0 0 0 0 0 0 0 0 0 0 0 0 0
0 0 0 0 0 0 0 0 0 0 0 0 0 0 0 0 -0 -0 -0 -0 -0 -0 -0 -0 -0 -0 0 0 0 0 0 0 0 0 0 0 0 0 0 0 0 0 0
0 0 0 0 0 0 0 0 0 0 0 0 0 0 0 0 -0 -0 -0 0 0 -0 -0 0 -0 -0 0 -0 0 0 0 0 0 0 0 0 0 0 0 0 0 0 0
0 0 0 0 0 0 0 0 0 0 0 0 0 0 0 0 0 0 -0 -0 0 -0 0 0 -0 0 0 0 0 0 0 0 0 0 0 0 0 0 0 0 0 0 0
0 0 0 0 0 0 0 0 0 0 0 0 0 0 0 0 0 0 0 0 -0 0 0 0 0 0 0 0 0 0 0 0 0 0 0 0 0 0 0 0 0 0 0
0 0 0 0 0 0 0 0 0 0 0 0 0 0 0 0 0 0 0 0 0 -0 0 0 0 0 0 0 0 0 0 0 0 0 0 0 0 0 0 0 0 0 0
0 0 0 0 0 0 0 0 0 0 0 0 0 0 0 0 0 0 0 0 0 0 0 0 0 0 0 0 0 0 0 0 0 0 0 0 0 0 0 0 0 0 0
Wind_Speed_500mb
41 42 43 41 39 40 42 44 44 44 45 46 46 49 55 59 63 69 74 68 68 73 70 69 75 81 83 82 78 78 71 67 64 61 64 70 73 72 70 67 63 64 60
45 47 47 43 39 37 38 39 40 42 43 44 48 49 52 57 62 67 72 80 83 79 66 68 72 76 82 84 83 82 81 76 72 67 66 69 75 78 75 74 73 66 69
48 49 47 42 38 36 35 35 36 38 41 42 44 45 49 53 58 63 67 74 82 82 84 85 79 77 76 82 87 89 90 89 84 76 70 71 73 78 80 80 77 79 74
50 48 42 36 35 35 36 37 39 41 42 45 49 50 52 52 55 58 65 68 72 78 82 81 83 96 79 80 83 86 92 94 94 89 82 75 74 76 80 84 84 82 82
43 40 37 32 31 33 34 38 40 43 48 53 52 54 56 59 60 61 62 62 68 75 77 79 82 87 90 95 87 87 88 97 101 94 84 92 82 82 79 81 82 82 86
34 30 27 29 31 32 31 32 37 39 47 55 58 62 63 64 63 63 63 63 65 66 67 72 76 84 86 80 86 87 91 90 101 95 103 99 87 80 77 78 80 81 84
27 26 27 27 28 31 34 36 38 40 45 46 55 63 67 62 53 52 54 50 46 51 58 66 76 81 86 88 96 79 89 87 95 100 102 95 83 81 77 74 76 79 86
31 33 32 31 31 34 30 29 30 31 35 35 40 50 35 63 23 19 20 25 35 45 54 57 64 75 82 87 92 89 84 76 85 85 102 101 91 79 80 79 91 92 89
30 30 30 31 32 36 36 31 29 24 35 35 25 20 21 18 65 56 53 45 42 40 37 44 47 52 67 79 85 76 80 80 79 80 84 78 84 84 84 84 82 92 93
27 28 28 31 32 33 35 35 29 31 34 43 42 35 42 53 43 56 55 62 63 58 62 57 55 53 48 56 70 78 76 78 83 77 79 72 79 83 85 92 86 88 93
26 25 27 30 32 33 34 35 37 36 34 38 41 45 45 49 53 59 72 57 55 55 51 48 54 53 59 60 59 65 81 83 70 88 83 74 78 83 86 94 89 86 86
23 24 26 28 30 30 30 33 33 34 36 40 44 45 45 47 40 47 61 75 75 84 76 67 54 51 56 59 61 62 66 71 83 78 84 86 82 83 93 92 87 83 84
21 22 24 24 27 28 30 32 35 36 36 41 44 51 54 55 59 59 59 72 74 77 79 78 68 58 55 57 54 57 63 70 76 85 85 87 86 86 88 85 86 81 83
23 22 23 26 28 28 32 35 40 42 43 46 50 51 58 61 61 63 66 64 69 65 63 72 73 64 63 52 54 56 56 59 66 84 90 90 91 91 91 92 87 89 83
23 23 25 29 29 31 35 39 44 45 47 49 56 61 63 64 60 63 64 63 60 54 58 63 55 54 35 20 27 44 49 45 53 65 80 88 86 87 83 86 87 80 84
25 26 29 30 32 35 39 44 47 50 53 52 55 58 60 62 59 52 53 56 56 66 64 67 65 65 66 54 42 33 36 40 46 57 58 72 77 73 76 71 78 77 70
24 26 29 32 34 35 36 40 43 45 48 49 49 54 56 50 49 48 51 53 57 61 72 75 69 61 48 40 29 31 17 31 39 59 60 53 61 67 57 58 56 57 62
23 25 26 28 29 29 31 39 42 42 44 45 43 43 45 46 45 44 46 49 53 53 55 59 60 63 48 42 42 40 25 23 30 35 44 45 53 56 63 66 61 69 64
18 20 21 23 25 26 29 31 35 36 35 37 38 38 39 43 44 42 40 44 43 44 41 46 48 55 52 50 44 43 34 34 30 35 35 37 46 56 61 64 65 60 57
13 14 16 20 23 24 27 30 34 36 34 31 31 32 34 36 40 40 37 37 37 33 26 31 40 41 35 41 41 42 45 37 42 34 42 49 40 35 31 28 38 48 54
11 12 13 16 18 22 26 30 30 36 38 32 27 25 26 30 33 37 42 42 38 30 27 27 24 26 28 35 41 42 41 42 42 36 42 44 43 46 39 30 27 27 25
10 11 14 15 17 19 22 25 28 28 30 32 31 24 22 24 28 26 22 24 28 27 23 30 34 33 34 38 39 41 44 42 39 35 41 44 42 40 41 41 40 42 41
17 19 19 20 20 21 22 24 26 27 25 25 25 24 22 23 26 31 27 26 20 16 18 22 27 29 34 33 35 39 41 41 38 35 27 32 42 48 47 45 47 45 44
22 24 24 25 25 25 24 24 25 27 26 25 23 22 24 23 22 22 20 23 27 28 22 15 9 11 15 19 23 28 30 30 30 27 25 22 26 32 42 42 41 41 40
32 35 34 31 30 27 29 28 28 26 26 24 23 22 22 21 22 22 22 18 17 20 24 23 20 15 11 11 19 15 12 11 10 13 13 13 11 7 5 11 19 28 32
38 38 37 35 35 32 30 31 31 30 27 26 24 22 22 24 23 21 21 21 18 17 16 16 16 15 14 15 12 11 10 11 15 11 13 4 7 7 6 8 13 10 16
Wind_Direction_500mb
312 314 315 310 302 293 288 285 283 281 278 274 269 266 262 258 252 249 249 250 256 253 251 251 252 254 255 253 251 248 245 245 247 245 242 239 236 237 240 242 243 243 245
310 313 314 310 303 294 289 289 290 288 284 280 275 271 265 263 261 257 252 251 251 258 252 253 252 253 254 256 254 251 247 245 245 247 245 241 238 236 238 241 241 242 243
309 311 309 306 302 298 294 290 286 285 287 289 287 283 280 273 265 263 261 258 254 252 252 253 254 254 253 255 256 255 252 247 246 243 245 244 241 238 237 239 240 244 248
309 307 304 302 300 299 298 299 299 297 293 290 288 285 282 280 279 273 265 263 262 259 255 255 256 254 254 252 254 255 254 251 247 242 240 242 241 241 239 239 242 244 247
302 300 301 300 295 294 296 298 299 301 303 301 294 287 286 284 281 278 276 273 269 266 263 259 256 256 257 257 255 253 254 250 248 247 248 242 241 241 240 242 243 246 249
298 298 297 294 295 299 299 298 298 296 297 301 299 296 291 287 288 286 285 282 279 276 272 267 263 255 255 255 255 252 251 252 252 251 237 240 238 239 241 243 245 248 250
298 303 303 305 299 296 298 296 293 291 293 301 308 304 298 298 289 290 287 285 281 277 272 266 262 260 255 251 255 259 252 253 250 250 252 244 238 233 239 243 246 250 251
304 309 308 303 304 303 301 296 298 297 299 306 315 319 323 312 280 260 309 296 292 281 279 282 276 265 259 255 255 258 261 261 253 255 248 237 241 234 233 239 243 248 254
293 296 302 309 310 311 313 314 309 301 298 293 290 293 319 290 308 288 275 285 299 297 288 294 301 295 268 260 255 258 261 256 257 258 252 232 239 252 248 247 246 248 259
294 299 302 302 305 307 308 305 298 283 281 289 291 277 257 271 295 302 296 287 289 294 290 296 301 295 300 281 269 254 257 261 254 255 252 263 263 251 246 247 248 258 252
288 290 294 301 305 304 305 307 303 303 297 287 284 285 282 279 275 282 294 300 277 270 285 295 294 291 285 281 280 278 256 252 255 252 253 261 258 250 243 241 253 251 252
282 285 292 295 298 300 311 308 305 305 304 301 296 287 281 277 279 280 285 290 292 287 276 279 298 301 295 286 280 271 268 266 261 263 259 255 250 254 251 254 251 251 254
275 284 290 295 301 311 303 295 296 295 298 296 294 293 289 282 276 280 280 284 289 294 288 272 282 295 298 290 283 273 265 261 260 257 258 252 250 256 250 255 253 255 257
284 294 303 310 314 307 300 302 301 304 302 299 296 292 290 287 281 277 280 282 288 290 289 284 277 293 298 284 276 274 274 264 263 255 253 254 252 251 251 256 249 258 257
297 304 305 306 307 299 299 299 300 302 299 298 296 295 296 294 290 283 275 277 277 283 287 289 287 300 290 297 300 278 268 274 274 269 260 251 252 250 251 254 249 256 253
301 306 302 304 305 304 305 304 303 304 302 301 298 299 297 297 297 293 287 281 273 275 274 279 284 282 284 279 293 292 270 273 285 285 281 256 251 250 249 246 246 252 253
308 309 307 308 309 310 310 311 316 315 310 305 297 294 297 300 295 291 287 282 274 270 271 275 278 277 282 280 271 285 276 272 275 287 292 282 249 238 239 241 235 253 251
316 316 316 317 318 320 315 315 316 313 307 303 298 297 303 302 296 291 286 279 278 273 268 266 276 260 274 284 281 284 280 282 283 274 275 260 231 210 210 212 243 234 230
327 330 334 337 336 335 336 337 334 328 318 308 305 302 304 302 301 298 292 284 281 278 261 259 263 264 269 283 276 273 282 285 295 276 249 219 195 190 214 217 212 216 222
346 355 0 359 1 3 360 0 1 356 344 332 320 312 308 309 309 307 306 303 294 286 281 264 266 263 280 286 279 281 283 284 290 278 256 236 222 211 191 183 189 191 205
354 0 359 359 358 358 353 354 0 4 4 357 343 332 324 319 315 310 310 309 298 297 294 299 296 288 287 289 289 291 286 283 281 271 255 245 238 237 239 234 226 236 219
335 337 335 336 333 338 341 341 345 346 350 3 8 359 346 343 340 335 343 322 302 294 287 293 291 297 300 295 292 289 284 284 281 283 277 259 250 245 239 241 240 241 239
306 307 308 309 313 319 323 327 333 336 342 346 349 354 0 358 358 1 2 7 357 325 296 286 286 291 290 297 290 284 283 284 275 274 278 269 259 254 250 249 251 247 247
295 298 299 302 307 311 314 317 321 324 328 334 339 343 349 346 349 2 6 9 8 7 6 9 334 290 297 315 304 292 289 285 284 284 276 267 272 265 245 241 247 253 248
285 289 292 294 298 304 306 309 311 312 316 319 325 330 334 339 340 344 347 350 4 10 9 20 24 20 360 1 354 341 346 342 328 322 290 277 325 310 268 262 250 254 247
283 281 284 289 293 296 296 298 300 304 307 310 313 319 323 326 332 337 343 351 352 355 3 11 22 36 30 25 31 36 38 20 10 7 353 303 318 331 8 313 287 284 266
Wind_Speed_850mb
41 42 43 41 39 40 42 44 44 44 45 46 46 49 55 59 63 69 74 68 68 73 70 69 75 81 83 82 78 78 71 67 64 61 64 70 73 72 70 67 63 64 60
45 47 47 43 39 37 38 39 40 42 43 44 48 49 52 57 62 67 72 80 83 79 66 68 72 76 82 84 83 82 81 76 72 67 66 69 75 78 75 74 73 66 69
48 49 47 42 38 36 35 35 36 38 41 42 44 45 49 53 58 63 67 74 82 82 84 85 79 77 76 82 87 89 90 89 84 76 70 71 73 78 80 80 77 79 74
50 48 42 36 35 35 36 37 39 41 42 45 49 50 52 52 55 58 65 68 72 78 82 81 83 96 79 80 83 86 92 94 94 89 82 75 74 76 80 84 84 82 82
43 40 37 32 31 33 34 38 40 43 48 53 52 54 56 59 60 61 62 62 68 75 77 79 82 87 90 95 87 87 88 97 101 94 84 92 82 82 79 81 82 82 86
34 30 27 29 31 32 31 32 37 39 47 55 58 62 63 64 63 63 63 63 65 66 67 72 76 84 86 80 86 87 91 90 101 95 103 99 87 80 77 78 80 81 84
27 26 27 27 28 31 34 36 38 40 45 46 55 63 67 62 53 52 54 50 46 51 58 66 76 81 86 88 96 79 89 87 95 100 102 95 83 81 77 74 76 79 86
31 33 32 31 31 34 30 29 30 31 35 35 40 50 35 63 23 19 20 25 35 45 54 57 64 75 82 87 92 89 84 76 85 85 102 101 91 79 80 79 91 92 89
30 30 30 31 32 36 36 31 29 24 35 35 25 20 21 18 65 56 53 45 42 40 37 44 47 52 67 79 85 76 80 80 79 80 84 78 84 84 84 84 82 92 93
27 28 28 31 32 33 35 35 29 31 34 43 42 35 42 53 43 56 55 62 63 58 62 57 55 53 48 56 70 78 76 78 83 77 79 72 79 83 85 92 86 88 93
26 25 27 30 32 33 34 35 37 36 34 38 41 45 45 49 53 59 72 57 55 55 51 48 54 53 59 60 59 65 81 83 70 88 83 74 78 83 86 94 89 86 86
23 24 26 28 30 30 30 33 33 34 36 40 44 45 45 47 40 47 61 75 75 84 76 67 54 51 56 59 61 62 66 71 83 78 84 86 82 83 93 92 87 83 84
21 22 24 24 27 28 30 32 35 36 36 41 44 51 54 55 59 59 59 72 74 77 79 78 68 58 55 57 54 57 63 70 76 85 85 87 86 86 88 85 86 81 83
23 22 23 26 28 28 32 35 40 42 43 46 50 51 58 61 61 63 66 64 69 65 63 72 73 64 63 52 54 56 56 59 66 84 90 90 91 91 91 92 87 89 83
23 23 25 29 29 31 35 39 44 45 47 49 56 61 63 64 60 63 64 63 60 54 58 63 55 54 35 20 27 44 49 45 53 65 80 88 86 87 83 86 87 80 84
25 26 29 30 32 35 39 44 47 50 53 52 55 58 60 62 59 52 53 56 56 66 64 67 65 65 66 54 42 33 36 40 46 57 58 72 77 73 76 71 78 77 70
24 26 29 32 34 35 36 40 43 45 48 49 49 54 56 50 49 48 51 53 57 61 72 75 69 61 48 40 29 31 17 31 39 59 60 53 61 67 57 58 56 57 62
23 25 26 28 29 29 31 39 42 42 44 45 43 43 45 46 45 44 46 49 53 53 55 59 60 63 48 42 42 40 25 23 30 35 44 45 53 56 63 66 61 69 64
18 20 21 23 25 26 29 31 35 36 35 37 38 38 39 43 44 42 40 44 43 44 41 46 48 55 52 50 44 43 34 34 30 35 35 37 46 56 61 64 65 60 57
13 14 16 20 23 24 27 30 34 36 34 31 31 32 34 36 40 40 37 37 37 33 26 31 40 41 35 41 41 42 45 37 42 34 42 49 40 35 31 28 38 48 54
11 12 13 16 18 22 26 30 30 36 38 32 27 25 26 30 33 37 42 42 38 30 27 27 24 26 28 35 41 42 41 42 42 36 42 44 43 46 39 30 27 27 25
10 11 14 15 17 19 22 25 28 28 30 32 31 24 22 24 28 26 22 24 28 27 23 30 34 33 34 38 39 41 44 42 39 35 41 44 42 40 41 41 40 42 41
17 19 19 20 20 21 22 24 26 27 25 25 25 24 22 23 26 31 27 26 20 16 18 22 27 29 34 33 35 39 41 41 38 35 27 32 42 48 47 45 47 45 44
22 24 24 25 25 25 24 24 25 27 26 25 23 22 24 23 22 22 20 23 27 28 22 15 9 11 15 19 23 28 30 30 30 27 25 22 26 32 42 42 41 41 40
32 35 34 31 30 27 29 28 28 26 26 24 23 22 22 21 22 22 22 18 17 20 24 23 20 15 11 11 19 15 12 11 10 13 13 13 11 7 5 11 19 28 32
38 38 37 35 35 32 30 31 31 30 27 26 24 22 22 24 23 21 21 21 18 17 16 16 16 15 14 15 12 11 10 11 15 11 13 4 7 7 6 8 13 10 16
Wind_Direction_850mb
312 314 315 310 302 293 288 285 283 281 278 274 269 266 262 258 252 249 249 250 256 253 251 251 252 254 255 253 251 248 245 245 247 245 242 239 236 237 240 242 243 243 245
310 313 314 310 303 294 289 289 290 288 284 280 275 271 265 263 261 257 252 251 251 258 252 253 252 253 254 256 254 251 247 245 245 247 245 241 238 236 238 241 241 242 243
309 311 309 306 302 298 294 290 286 285 287 289 287 283 280 273 265 263 261 258 254 252 252 253 254 254 253 255 256 255 252 247 246 243 245 244 241 238 237 239 240 244 248
309 307 304 302 300 299 298 299 299 297 293 290 288 285 282 280 279 273 265 263 262 259 255 255 256 254 254 252 254 255 254 251 247 242 240 242 241 241 239 239 242 244 247
302 300 301 300 295 294 296 298 299 301 303 301 294 287 286 284 281 278 276 273 269 266 263 259 256 256 257 257 255 253 254 250 248 247 248 242 241 241 240 242 243 246 249
298 298 297 294 295 299 299 298 298 296 297 301 299 296 291 287 288 286 285 282 279 276 272 267 263 255 255 255 255 252 251 252 252 251 237 240 238 239 241 243 245 248 250
298 303 303 305 299 296 298 296 293 291 293 301 308 304 298 298 289 290 287 285 281 277 272 266 262 260 255 251 255 259 252 253 250 250 252 244 238 233 239 243 246 250 251
304 309 308 303 304 303 301 296 298 297 299 306 315 319 323 312 280 260 309 296 292 281 279 282 276 265 259 255 255 258 261 261 253 255 248 237 241 234 233 239 243 248 254
293 296 302 309 310 311 313 314 309 301 298 293 290 293 319 290 308 288 275 285 299 297 288 294 301 295 268 260 255 258 261 256 257 258 252 232 239 252 248 247 246 248 259
294 299 302 302 305 307 308 305 298 283 281 289 291 277 257 271 295 302 296 287 289 294 290 296 301 295 300 281 269 254 257 261 254 255 252 263 263 251 246 247 248 258 252
288 290 294 301 305 304 305 307 303 303 297 287 284 285 282 279 275 282 294 300 277 270 285 295 294 291 285 281 280 278 256 252 255 252 253 261 258 250 243 241 253 251 252
282 285 292 295 298 300 311 308 305 305 304 301 296 287 281 277 279 280 285 290 292 287 276 279 298 301 295 286 280 271 268 266 261 263 259 255 250 254 251 254 251 251 254
275 284 290 295 301 311 303 295 296 295 298 296 294 293 289 282 276 280 280 284 289 294 288 272 282 295 298 290 283 273 265 261 260 257 258 252 250 256 250 255 253 255 257
284 294 303 310 314 307 300 302 301 304 302 299 296 292 290 287 281 277 280 282 288 290 289 284 277 293 298 284 276 274 274 264 263 255 253 254 252 251 251 256 249 258 257
297 304 305 306 307 299 299 299 300 302 299 298 296 295 296 294 290 283 275 277 277 283 287 289 287 300 290 297 300 278 268 274 274 269 260 251 252 250 251 254 249 256 253
301 306 302 304 305 304 305 304 303 304 302 301 298 299 297 297 297 293 287 281 273 275 274 279 284 282 284 279 293 292 270 273 285 285 281 256 251 250 249 246 246 252 253
308 309 307 308 309 310 310 311 316 315 310 305 297 294 297 300 295 291 287 282 274 270 271 275 278 277 282 280 271 285 276 272 275 287 292 282 249 238 239 241 235 253 251
316 316 316 317 318 320 315 315 316 313 307 303 298 297 303 302 296 291 286 279 278 273 268 266 276 260 274 284 281 284 280 282 283 274 275 260 231 210 210 212 243 234 230
327 330 334 337 336 335 336 337 334 328 318 308 305 302 304 302 301 298 292 284 281 278 261 259 263 264 269 283 276 273 282 285 295 276 249 219 195 190 214 217 212 216 222
346 355 0 359 1 3 360 0 1 356 344 332 320 312 308 309 309 307 306 303 294 286 281 264 266 263 280 286 279 281 283 284 290 278 256 236 222 211 191 183 189 191 205
354 0 359 359 358 358 353 354 0 4 4 357 343 332 324 319 315 310 310 309 298 297 294 299 296 288 287 289 289 291 286 283 281 271 255 245 238 237 239 234 226 236 219
335 337 335 336 333 338 341 341 345 346 350 3 8 359 346 343 340 335 343 322 302 294 287 293 291 297 300 295 292 289 284 284 281 283 277 259 250 245 239 241 240 241 239
306 307 308 309 313 319 323 327 333 336 342 346 349 354 0 358 358 1 2 7 357 325 296 286 286 291 290 297 290 284 283 284 275 274 278 269 259 254 250 249 251 247 247
295 298 299 302 307 311 314 317 321 324 328 334 339 343 349 346 349 2 6 9 8 7 6 9 334 290 297 315 304 292 289 285 284 284 276 267 272 265 245 241 247 253 248
285 289 292 294 298 304 306 309 311 312 316 319 325 330 334 339 340 344 347 350 4 10 9 20 24 20 360 1 354 341 346 342 328 322 290 277 325 310 268 262 250 254 247
283 281 284 289 293 296 296 298 300 304 307 310 313 319 323 326 332 337 343 351 352 355 3 11 22 36 30 25 31 36 38 20 10 7 353 303 318 331 8 313 287 284 266